SCP
0 0 0 0 0 0 0 0 0 0 0 0 0 0 0 0 0 0 0 0 0 0
0 0 0 0 0 0 0 0 0 0 0 0 0 0 0 0 0 0 0 0 0 0
0 0 0 0 0 0 0 0 0 0 0 0 0 0 0 0 0 0 0 0 0 0
0 0 0 0 0 0 0 0 0 0 0 0 0 0 0 0 0 0 0 0 0 0
0 0 0 0 0 0 0 0 0 0 0 0 0 0 0 0 0 0 0 0 0 0
0 0 0 0 0 0 0 0 0 0 0 0 0 0 0 0 0 0 0 0 0 0
0 0 0 0 0 0 0 0 0 0 0 0 0 0 0 0 0 0 0 0 0 0
0 0 0 0 0 0 0 0 0 0 0 0 0 0 0 0 0 0 0 0 0 0
0 0 0 0 0 0 0 0 0 0 0 0 0 0 0 0 0 0 0 0 0 0
0 0 0 0 0 0 0 0 0 0 0 0 0 0 0 0 0 0 0 0 0 0
0 0 0 0 0 0 0 0 0 0 0 0 0 0 0 0 0 0 0 0 0 0
0 0 0 0 0 0 0 0 0 0 0 0 0 0 0 0 0 0 0 0 0 0
0 0 0 0 0 0 0 0 0 0 0 0 0 0 0 0 0 0 0 0 0 0
0 0 0 0 0 0 0 0 0 0 0 0 0 0 0 0 0 0 0 0 0 0
Wind_Speed_500mb
71 74 70 69 67 66 65 61 55 51 51 52 54 54 58 60 61 65 68 72 75 78
73 74 72 65 65 63 58 57 54 50 48 49 49 49 49 53 56 58 59 64 66 70
68 68 66 68 64 62 57 53 52 52 51 48 46 47 51 54 54 58 57 59 60 64
60 59 61 63 62 61 58 56 54 52 50 48 49 52 55 56 57 59 57 57 61 62
56 55 56 58 56 54 54 52 52 51 49 51 52 51 54 56 54 52 52 54 51 55
56 55 53 52 51 52 53 55 55 53 52 50 50 47 46 44 48 51 57 58 57 52
48 48 49 49 50 50 51 50 48 45 44 44 44 46 47 50 48 54 53 58 53 55
38 38 38 39 40 40 41 40 40 41 41 42 44 47 50 51 52 50 52 55 53 49
33 33 34 34 32 31 30 31 32 34 36 39 40 39 40 43 46 46 41 39 40 38
36 35 32 29 27 27 27 26 25 24 23 27 30 36 40 43 40 36 30 22 19 17
38 34 31 29 28 27 25 24 24 24 24 25 26 29 30 26 22 20 14 12 12 14
40 36 31 31 31 30 31 30 27 24 23 23 22 19 15 15 15 14 12 13 15 17
42 38 37 37 36 34 31 28 24 19 17 16 13 9 9 12 10 10 13 11 10 12
46 43 43 39 36 32 28 25 22 21 19 12 8 6 8 10 10 12 10 9 8 10
Wind_Direction_500mb
243 244 247 249 252 254 258 261 265 268 266 265 266 267 266 267 268 269 269 268 269 273
242 244 247 252 256 258 261 263 264 265 263 261 261 264 266 266 267 268 270 271 274 275
244 245 249 252 256 258 262 264 263 262 264 265 264 262 263 265 268 270 272 276 277 280
244 245 246 251 255 256 258 259 259 261 260 258 258 260 262 264 266 271 275 278 281 284
242 242 244 246 248 249 250 251 252 254 255 254 256 258 261 264 270 271 278 282 280 281
236 237 240 244 246 247 248 249 250 250 251 253 256 255 261 262 267 266 267 275 276 277
227 233 238 243 246 249 250 250 251 252 254 255 253 258 258 260 265 266 266 265 270 275
220 224 230 236 241 245 251 255 258 258 256 253 252 253 254 254 256 261 266 272 274 276
222 228 233 238 242 246 247 248 249 249 248 247 248 250 252 252 258 262 264 267 273 275
231 234 236 236 236 234 232 231 231 232 231 228 232 241 246 253 257 260 262 269 279 276
238 235 231 230 230 229 226 224 221 223 227 233 238 247 256 252 245 248 264 282 294 294
234 231 229 226 222 216 215 214 216 219 230 241 251 264 266 260 262 260 261 274 281 286
230 226 221 215 213 210 209 214 219 224 237 243 249 264 273 275 280 265 272 300 322 309
227 223 217 210 206 207 208 209 206 204 206 208 227 241 219 232 232 221 250 290 296 290
Wind_Speed_850mb
71 74 70 69 67 66 65 61 55 51 51 52 54 54 58 60 61 65 68 72 75 78
73 74 72 65 65 63 58 57 54 50 48 49 49 49 49 53 56 58 59 64 66 70
68 68 66 68 64 62 57 53 52 52 51 48 46 47 51 54 54 58 57 59 60 64
60 59 61 63 62 61 58 56 54 52 50 48 49 52 55 56 57 59 57 57 61 62
56 55 56 58 56 54 54 52 52 51 49 51 52 51 54 56 54 52 52 54 51 55
56 55 53 52 51 52 53 55 55 53 52 50 50 47 46 44 48 51 57 58 57 52
48 48 49 49 50 50 51 50 48 45 44 44 44 46 47 50 48 54 53 58 53 55
38 38 38 39 40 40 41 40 40 41 41 42 44 47 50 51 52 50 52 55 53 49
33 33 34 34 32 31 30 31 32 34 36 39 40 39 40 43 46 46 41 39 40 38
36 35 32 29 27 27 27 26 25 24 23 27 30 36 40 43 40 36 30 22 19 17
38 34 31 29 28 27 25 24 24 24 24 25 26 29 30 26 22 20 14 12 12 14
40 36 31 31 31 30 31 30 27 24 23 23 22 19 15 15 15 14 12 13 15 17
42 38 37 37 36 34 31 28 24 19 17 16 13 9 9 12 10 10 13 11 10 12
46 43 43 39 36 32 28 25 22 21 19 12 8 6 8 10 10 12 10 9 8 10
Wind_Direction_850mb
243 244 247 249 252 254 258 261 265 268 266 265 266 267 266 267 268 269 269 268 269 273
242 244 247 252 256 258 261 263 264 265 263 261 261 264 266 266 267 268 270 271 274 275
244 245 249 252 256 258 262 264 263 262 264 265 264 262 263 265 268 270 272 276 277 280
244 245 246 251 255 256 258 259 259 261 260 258 258 260 262 264 266 271 275 278 281 284
242 242 244 246 248 249 250 251 252 254 255 254 256 258 261 264 270 271 278 282 280 281
236 237 240 244 246 247 248 249 250 250 251 253 256 255 261 262 267 266 267 275 276 277
227 233 238 243 246 249 250 250 251 252 254 255 253 258 258 260 265 266 266 265 270 275
220 224 230 236 241 245 251 255 258 258 256 253 252 253 254 254 256 261 266 272 274 276
222 228 233 238 242 246 247 248 249 249 248 247 248 250 252 252 258 262 264 267 273 275
231 234 236 236 236 234 232 231 231 232 231 228 232 241 246 253 257 260 262 269 279 276
238 235 231 230 230 229 226 224 221 223 227 233 238 247 256 252 245 248 264 282 294 294
234 231 229 226 222 216 215 214 216 219 230 241 251 264 266 260 262 260 261 274 281 286
230 226 221 215 213 210 209 214 219 224 237 243 249 264 273 275 280 265 272 300 322 309
227 223 217 210 206 207 208 209 206 204 206 208 227 241 219 232 232 221 250 290 296 290